Regional Weather Roundup
Issued by NWS Green Bay, WI

Home | Current Version | Previous Version | Text Only | Print | Product List | Glossary On
Versions: 1 2 3 4 5 6 7 8 9 10 11 12 13 14 15 16 17 18 19 20 21 22 23 24 25 26 27 28 29 30 31 32 33 34 35 36 37 38 39 40 41 42 43 44 45 46 47 48 49 50
000
ASUS43 KGRB 250259
RWRGRB

NORTH-CENTRAL AND NORTHEAST WISCONSIN REGIONAL WEATHER ROUNDUP
NATIONAL WEATHER SERVICE GREEN BAY WI
1000 PM CDT FRI OCT 24 2014

WIZ005-009-010>012-018-019-250400-
NORTH CENTRAL WISCONSIN

CITY           SKY/WX    TMP DP  RH WIND       PRES   REMARKS
IRONWOOD       CLEAR     55  52  88 SW15      29.74F
MANITOWISH WTR NOT AVBL
ARBOR VITAE    NOT AVBL
EAGLE RIVER    NOT AVBL
LAND O LAKES   NOT AVBL
RHINELANDER    CLOUDY    53  49  86 SW10      29.84S
PHILLIPS       NOT AVBL
ANTIGO         NOT AVBL
TOMAHAWK       NOT AVBL
MERRILL        NOT AVBL
$$

WIZ013-073-250400-
NORTHEAST WISCONSIN

CITY           SKY/WX    TMP DP  RH WIND       PRES   REMARKS
IRON MOUNTAIN  CLOUDY    50  47  89 SE5       29.79F
MARINETTE      PTCLDY    52  46  82 SW9       29.83F
$$

WIZ017-030-035>037-045-250400-
CENTRAL WISCONSIN

CITY           SKY/WX    TMP DP  RH WIND       PRES   REMARKS
MEDFORD        NOT AVBL
WAUSAU         CLOUDY    55  51  86 SW5       29.85S
MOSINEE        CLOUDY    55  54  94 SW8       29.87F
MARSHFIELD     CLOUDY    58  55  90 W12       29.87S
WISC RAPIDS    CLOUDY    57  54  89 SW6       29.89F
STEVENS POINT  NOT AVBL
WAUPACA        NOT AVBL
SHAWANO        NOT AVBL
CLINTONVILLE   NOT AVBL
$$

WIZ038-039-048-051-250400-
FOX VALLEY

CITY           SKY/WX    TMP DP  RH WIND       PRES   REMARKS
NWS GREEN BAY  CLOUDY    53  50  89 S5        29.86F
APPLETON       CLOUDY    54  52  94 S5        29.88F
OSHKOSH        CLOUDY    55  51  86 S9        29.88S
FOND DU LAC    CLOUDY    57  49  74 SW10      29.89F
$$

WIZ022-050-052-250400-
EAST CENTRAL WISCONSIN

CITY           SKY/WX    TMP DP  RH WIND       PRES   REMARKS
STURGEON BAY   CLOUDY    50  48  93 S9        29.87F
MANITOWOC      NOT AVBL
SHEBOYGAN      CLOUDY    53  50  89 S6        29.90F
$$

LMZ563-521-522-541>543-250400-
LAKESHORE

STATION/POSITION TIME  TEMP    WIND        PRES    VSBY  WAVE
                       AIR SEA DIR/SP/G                  HT/PER
                 (UTC) (F)     (DEG/KT/KT) (MB)    (MI)  (FT/S)
SHEBOYGAN LKSHOR 0200   51 51  180/  8/  9 1013.3F
KEWAUNEE LKSHORE 0200   51     190/  6/ 12 1011.2F
ALGOMA MARINA    0200          220/ 20/ 23   N/A
NORTHPORT PIER   0200   49     160/  6/  9 1011.2F
N MID LAKE BUOY  0200   49 51  210/ 21/ 25 1011.0F         4/ 5
SISTER BAY LKSHO 0200          180/  9/ 12   N/A
CHAMBERS ISLAND  0200   50     170/  5/ 12 1011.2F
MENOMINEE LKSHOR 0200   51     180/  8/ 11 1011.4F
$$



USA.gov is the U.S. government's official web portal to all federal, state and local government web resources and services.